Regional Weather Roundup
Issued by NWS

Home | Current Version | Previous Version | Text Only | Print | Product List | Glossary Off
Versions: 1 2 3 4 5 6 7 8 9 10 11 12 13 14 15 16 17 18 19 20 21 22 23 24 25 26 27 28 29 30 31 32 33 34 35 36 37 38 39 40 41 42 43 44 45 46 47 48 49 50

000
ASUS43 KBIS 030810
RWRND

NORTH DAKOTA REGIONAL WEATHER ROUNDUP
NATIONAL WEATHER SERVICE BISMARCK ND
300 AM CDT TUE MAY 03 2016

NOTE: "FAIR" INDICATES FEW OR NO CLOUDS BELOW 12,000 FEET WITH NO
SIGNIFICANT WEATHER AND/OR OBSTRUCTIONS TO VISIBILITY.


NDZ001>003-009>011-017-030900-
NORTHWEST NORTH DAKOTA

CITY           SKY/WX    TMP DP  RH WIND       PRES   REMARKS
WILLISTON      CLEAR     42  34  73 CALM      30.01F
MINOT          CLOUDY    56  36  47 SW12      29.97S
MINOT AFB      PTCLDY    49  38  65 SW9       29.95F
$$

NDZ018>021-031>035-040>046-030900-
SOUTHWEST NORTH DAKOTA

CITY           SKY/WX    TMP DP  RH WIND       PRES   REMARKS
BISMARCK       CLOUDY    40  40 100 CALM      30.01F
DICKINSON      CLEAR     36  30  79 W6        30.02R
GARRISON         N/A     43  35  73 CALM      29.99F
HETTINGER ARPT CLEAR     31  27  85 CALM      30.06S
$$

NDZ004>008-012>016-024-026-027-054-030900-
NORTHEAST NORTH DAKOTA

CITY           SKY/WX    TMP DP  RH WIND       PRES   REMARKS
GRAND FORKS    CLOUDY    52  36  54 W12       29.91F
GRND FRKS AFB  CLOUDY    52  35  53 W12       29.92F
DEVILS LAKE    CLOUDY    49  40  71 SW8       29.95F
$$

NDZ022-023-025-028>030-036>039-047>053-030900-
SOUTHEAST NORTH DAKOTA

CITY           SKY/WX    TMP DP  RH WIND       PRES   REMARKS
FARGO          CLOUDY    46  35  65 W7        29.94F
JAMESTOWN      CLOUDY    38  35  89 SW3       29.97F
$$





USA.gov is the U.S. government's official web portal to all federal, state and local government web resources and services.